[[{"header":{"parameterUnit":"m.s-1","parameterCategory":1,"la1":30.2991,"la2":30.254,"lo1":-89.0895,"lo2":-89.0444,"dy":0.0017,"dx":0.0017,"nx":28,"ny":28,"refTime":"2024-07-20T21:00:00:Z","depth":0,"parameterNumber":2,"parameterNumberName":"U-component_of_WINDS"},"data":[0,0,0,0,0,0,0,0,0,0,0,0,0,0,0,0,0,0,0,0,0,0,0,0,0,0,0,0,0,0,0,0,0,0,0,0,0,0,0,0,0,0,0,0,0,0,0,0,0,0,0,0,0,0,0,0,0,0,2.9348,2.9349,0,2.9422,2.9423,2.9424,2.9444,2.9444,2.9444,2.9443,2.9517,2.952,2.9522,0,0,0,0,0,0,0,0,0,0,0,0,0,2.9223,2.9225,2.9348,2.9349,2.935,2.9422,2.9423,2.9424,2.9444,2.9444,2.9443,2.9443,2.9517,2.9519,2.9522,0,0,0,0,0,0,0,0,0,0,0,0,0,2.9285,2.9226,2.9348,2.9369,2.9371,2.9422,2.9423,2.9424,2.9445,2.9444,2.9443,2.9443,2.9516,2.9519,2.9523,2.9557,0,0,2.9534,2.9535,0,0,0,0,0,0,0,0,2.9281,2.929,2.9365,2.9367,2.937,2.9423,2.9406,2.9469,2.9445,2.9417,2.9443,2.9442,2.9487,2.9492,2.9508,2.9561,2.9564,2.9534,2.9536,2.9538,2.9539,0,0,0,0,0,0,0,2.9277,2.9286,2.9377,2.9366,2.9369,2.9374,2.9382,2.9418,2.9454,2.9419,2.9421,2.9429,2.9488,2.9504,2.951,2.9565,2.9534,2.9537,2.9539,2.954,2.965,2.9651,0,0,0,0,0,0,2.9269,2.9283,2.9375,2.938,2.9324,2.9377,2.9386,2.9407,2.9454,2.946,2.943,2.943,2.9498,2.9505,2.9512,2.9556,2.9538,2.9541,2.9543,2.965,2.9651,2.9651,0,0,0,0,0,0,2.9267,2.9277,2.9372,2.9332,2.9344,2.938,2.9403,2.9409,2.9425,2.9462,2.9468,2.944,2.9498,2.9507,2.9546,2.9559,2.9542,2.9546,2.9649,2.965,2.9651,2.9644,0,0,0,0,0,0,2.9263,2.9276,2.929,2.9332,2.9346,2.9405,2.9404,2.9411,2.9431,2.9432,2.9473,2.9479,2.9498,2.9541,2.955,2.9564,2.9548,2.9648,2.9649,2.9651,2.9643,2.9645,2.9646,0,0,0,0,0,2.9258,2.9285,2.9291,2.9302,2.9364,2.9406,2.9414,2.9436,2.9432,2.9446,2.947,2.9478,2.9556,2.9544,2.9555,2.957,2.9647,2.9649,2.9651,2.9643,2.9644,2.9646,0,0,0,0,0,0,2.9243,2.929,2.9298,2.9338,2.9368,2.9409,2.9427,2.9437,2.9468,2.9467,2.9493,2.9502,2.9539,2.9558,2.9544,2.9606,2.9602,2.9606,2.9592,2.9594,2.9596,2.959,2.9551,0,0,0,0,0,2.9244,2.9274,2.9314,2.9346,2.9361,2.9391,2.941,2.9425,2.9456,2.9469,2.9495,2.9525,2.9556,2.9576,2.9607,2.9646,2.9655,2.9662,2.9663,2.9664,2.9667,2.969,2.9693,2.9657,2.9657,2.9657,0,0,2.9247,2.9277,2.9294,2.9344,2.9368,2.9399,2.9402,2.9434,2.9456,2.9473,2.9512,2.9532,2.9567,2.9606,2.9625,2.9624,2.9679,2.9666,2.9667,2.967,2.9692,2.9695,2.9698,2.9658,2.9658,2.9658,0,0,2.9268,2.9294,2.9324,2.9348,2.9386,2.9406,2.9413,2.9453,2.9468,2.9507,2.952,2.9547,2.9601,2.9625,2.9645,2.9675,2.9684,2.9685,2.9692,2.9714,2.9717,2.9719,2.9731,2.9734,2.9687,2.9687,2.9687,0,2.9267,2.9314,2.9337,2.9369,2.9391,2.9408,2.9438,2.9461,2.9506,2.952,2.9518,2.9586,2.961,2.9656,2.9663,2.9678,2.9687,2.968,2.9714,2.9717,2.972,2.9731,2.9735,2.9687,2.9687,2.9687,2.9687,0,2.9311,2.9343,2.9363,2.9407,2.943,2.9461,2.9489,2.951,2.9522,2.9543,2.9582,2.9613,2.965,2.9662,2.9674,2.9709,2.9707,2.9709,2.9706,2.9723,2.9734,2.9738,2.9687,2.9687,2.9687,2.9687,0,0,2.9324,2.9381,2.9388,2.9409,2.9452,2.9477,2.9508,2.9545,2.9563,2.9593,2.962,2.9665,2.9668,2.969,2.9705,2.9724,2.9747,2.9724,2.9725,2.9727,2.9788,2.9786,2.979,2.9753,2.9753,2.9754,2.9785,0,2.9351,2.9409,2.9431,2.9478,2.9508,2.9525,2.9552,2.9581,2.9601,2.9629,2.9651,2.9682,2.9683,2.9697,2.9716,2.974,2.9759,2.9738,2.9778,2.9779,2.9769,2.9796,2.9794,2.9822,2.9789,2.979,2.9791,0,2.939,2.9422,2.9472,2.9512,2.9525,2.9549,2.9586,2.9612,2.9645,2.9659,2.9683,2.9697,2.973,2.9724,2.977,2.9755,2.9773,2.9787,2.9789,2.9793,2.9786,2.9802,2.9831,2.9835,2.9797,2.9797,2.9796,0,2.9395,2.9451,2.9488,2.9505,2.9552,2.9569,2.9589,2.9621,2.9642,2.9674,2.9688,2.9722,2.9741,2.9767,2.979,2.9784,2.9834,2.983,2.9846,2.9846,2.9856,2.9855,2.9889,2.9867,2.9867,2.9867,2.9867,0,2.9423,2.9453,2.9491,2.9514,2.9548,2.9573,2.9606,2.9627,2.9656,2.9683,2.9699,2.9724,2.9753,2.9781,2.9799,2.9835,2.9843,2.9855,2.9859,2.9853,2.9852,2.9865,2.9864,2.9868,2.9868,2.9867,2.9867,0,2.9435,2.9461,2.9503,2.9545,2.9556,2.9579,2.9614,2.9637,2.9658,2.9692,2.9701,2.9733,2.9768,2.9793,2.9837,2.9849,2.9888,2.9892,2.9877,2.9879,2.9894,2.9892,2.9937,2.9945,2.9917,2.9918,2.9918,0,2.9451,2.9475,2.9519,2.9539,2.9559,2.959,2.9612,2.9638,2.966,2.9699,2.9717,2.9753,2.9783,2.9837,2.9864,2.9898,2.9904,2.9917,2.9909,2.9902,2.9904,2.9903,2.9905,2.9918,2.9919,2.9919,2.9919,0,2.9477,2.9489,2.9521,2.9557,2.9583,2.9612,2.9642,2.9657,2.9687,2.9711,2.9747,2.977,2.9816,2.9851,2.9888,2.9908,2.9919,2.9921,2.9927,2.9921,2.9912,2.9917,2.988,2.992,2.992,2.992,2.992,2.992,2.9492,2.9514,2.9549,2.9583,2.9608,2.9636,2.9659,2.9683,2.9714,2.9753,2.9766,2.9803,2.9836,2.9886,2.9907,2.9936,2.9936,2.9944,2.9946,2.9948,2.9947,2.9907,2.9943,2.9943,2.9943,2.9943,2.9943,0,2.9519,2.9543,2.9574,2.9615,2.9642,2.9651,2.9684,2.9706,2.9738,2.9768,2.9797,2.9839,2.9873,2.9903,2.9938,2.9956,2.9962,2.9964,2.9963,2.9968,2.9945,2.9937,2.9959,2.9959,2.9959,2.9959,2.9959,2.9959,2.9537,2.9575,2.9591,2.9641,2.9664,2.9701,2.972,2.9745,2.9769,2.9814,2.9843,2.9863,2.9892,2.993,2.9962,2.997,2.9982,2.9984,2.9993,2.9971,2.997,2.9968,2.996,2.9986,2.9986,3.0013,3.0013,3.0014]},{"header":{"parameterUnit":"m.s-1","parameterCategory":1,"la1":30.2991,"la2":30.254,"lo1":-89.0895,"lo2":-89.0444,"dy":0.0017,"dx":0.0017,"nx":28,"ny":28,"refTime":"2024-07-20T21:00:00:Z","depth":0,"parameterNumber":3,"parameterNumberName":"V-component_of_WINDS"},"data":[0,0,0,0,0,0,0,0,0,0,0,0,0,0,0,0,0,0,0,0,0,0,0,0,0,0,0,0,0,0,0,0,0,0,0,0,0,0,0,0,0,0,0,0,0,0,0,0,0,0,0,0,0,0,0,0,0,0,0.6516,0.6516,0,0.6533,0.6533,0.6534,0.6522,0.6521,0.6521,0.652,0.6539,0.654,0.6541,0,0,0,0,0,0,0,0,0,0,0,0,0,0.6473,0.6473,0.6516,0.6516,0.6516,0.6533,0.6533,0.6534,0.6522,0.6521,0.6521,0.652,0.6539,0.654,0.6541,0,0,0,0,0,0,0,0,0,0,0,0,0,0.6491,0.6474,0.6516,0.6512,0.6512,0.6533,0.6533,0.6534,0.6522,0.6521,0.652,0.652,0.6538,0.654,0.6541,0.6567,0,0,0.6546,0.6547,0,0,0,0,0,0,0,0,0.649,0.6492,0.6513,0.6513,0.6513,0.6524,0.6525,0.6545,0.6522,0.6518,0.652,0.6519,0.6535,0.6537,0.6542,0.6568,0.6569,0.6546,0.6547,0.6548,0.6548,0,0,0,0,0,0,0,0.6489,0.6492,0.6523,0.6513,0.6513,0.651,0.6512,0.6529,0.6531,0.6519,0.6518,0.652,0.6535,0.654,0.6542,0.6569,0.6546,0.6548,0.6548,0.6549,0.6615,0.6616,0,0,0,0,0,0,0.6488,0.6491,0.6522,0.6523,0.6499,0.6511,0.6513,0.6522,0.6531,0.6531,0.6521,0.6519,0.6538,0.654,0.6543,0.6572,0.6548,0.6549,0.655,0.6614,0.6615,0.6616,0,0,0,0,0,0,0.6487,0.649,0.6522,0.6507,0.651,0.6513,0.6522,0.6522,0.6528,0.6532,0.6533,0.6526,0.6538,0.6541,0.6561,0.6573,0.655,0.6551,0.6613,0.6614,0.6616,0.6633,0,0,0,0,0,0,0.6485,0.649,0.65,0.6507,0.6511,0.6539,0.6523,0.6523,0.653,0.6529,0.6537,0.6538,0.6537,0.6558,0.6562,0.6575,0.6552,0.6612,0.6614,0.6615,0.6631,0.6634,0.6637,0,0,0,0,0,0.6484,0.6505,0.6501,0.6505,0.6524,0.654,0.6542,0.6541,0.6531,0.6541,0.6544,0.6538,0.6571,0.6561,0.6565,0.6578,0.6611,0.6613,0.6615,0.663,0.6634,0.6637,0,0,0,0,0,0,0.65,0.6506,0.6501,0.6525,0.6532,0.6538,0.655,0.6545,0.6556,0.6554,0.6551,0.6553,0.6574,0.6578,0.6566,0.6602,0.659,0.6592,0.6599,0.6603,0.6606,0.6605,0.6554,0,0,0,0,0,0.6507,0.6519,0.6523,0.6544,0.6547,0.6548,0.6555,0.6553,0.656,0.6564,0.6568,0.6575,0.6587,0.6595,0.6607,0.6631,0.6632,0.6642,0.6645,0.6647,0.665,0.6662,0.6667,0.6622,0.6622,0.6622,0,0,0.652,0.6524,0.6533,0.6547,0.6552,0.6565,0.6551,0.6566,0.6575,0.6566,0.6585,0.6588,0.6596,0.6618,0.6628,0.6622,0.6662,0.665,0.6652,0.6653,0.6665,0.6669,0.6673,0.6624,0.6623,0.6623,0,0,0.6551,0.6556,0.6573,0.6578,0.6585,0.6585,0.6589,0.6595,0.6597,0.6615,0.6608,0.6619,0.664,0.6646,0.6652,0.6682,0.6677,0.6686,0.6703,0.6715,0.6718,0.6721,0.6732,0.6736,0.6689,0.6689,0.6689,0,0.6567,0.6586,0.6582,0.6597,0.6603,0.6594,0.6611,0.6616,0.6627,0.6632,0.6624,0.6649,0.6654,0.6677,0.6684,0.6689,0.6693,0.6686,0.6718,0.6721,0.6724,0.6734,0.6738,0.669,0.669,0.669,0.6689,0,0.6604,0.6618,0.663,0.664,0.6648,0.6664,0.6662,0.667,0.6667,0.6667,0.6686,0.6691,0.6703,0.6708,0.6705,0.673,0.6725,0.6718,0.6705,0.6729,0.6738,0.6742,0.6691,0.6691,0.6691,0.669,0,0,0.6648,0.6654,0.6659,0.6662,0.6669,0.6679,0.6694,0.6705,0.6711,0.6719,0.6731,0.6748,0.674,0.6746,0.6744,0.6755,0.6778,0.6746,0.6746,0.6751,0.6804,0.681,0.6815,0.6774,0.6774,0.6775,0.6804,0,0.6679,0.6704,0.6701,0.6725,0.6737,0.6727,0.674,0.6745,0.6746,0.6756,0.6757,0.6768,0.6758,0.6761,0.6771,0.6773,0.6788,0.6771,0.6785,0.6786,0.6784,0.682,0.6826,0.6853,0.6807,0.6808,0.6808,0,0.6719,0.6727,0.6752,0.6755,0.676,0.6772,0.678,0.679,0.6795,0.6795,0.6801,0.6796,0.681,0.6797,0.6816,0.6804,0.681,0.6811,0.6812,0.6814,0.6799,0.6823,0.6862,0.6866,0.6814,0.6814,0.6813,0,0.6748,0.6764,0.6781,0.6785,0.6789,0.6797,0.68,0.6804,0.681,0.6818,0.6821,0.6831,0.6836,0.6843,0.6841,0.6831,0.6861,0.6847,0.6861,0.6861,0.6868,0.6868,0.6909,0.6871,0.6871,0.6871,0.6871,0,0.6783,0.6799,0.6794,0.6805,0.6822,0.6817,0.6834,0.6835,0.6839,0.6849,0.6842,0.6852,0.6848,0.6857,0.6856,0.6872,0.6874,0.6874,0.6874,0.6875,0.6875,0.6879,0.6877,0.6872,0.6872,0.6872,0.6871,0,0.6818,0.6816,0.6834,0.6836,0.6837,0.6849,0.6851,0.6861,0.686,0.6873,0.6876,0.6875,0.6885,0.6883,0.6896,0.6894,0.6914,0.6911,0.6912,0.6912,0.6926,0.6924,0.6971,0.6977,0.6935,0.6936,0.6936,0,0.6841,0.6853,0.6856,0.6862,0.6864,0.6875,0.688,0.6875,0.6882,0.6887,0.6896,0.6906,0.6914,0.6931,0.6932,0.6941,0.6938,0.6954,0.6939,0.694,0.6938,0.6938,0.6939,0.6957,0.6957,0.6958,0.6958,0,0.6882,0.688,0.6888,0.6895,0.6902,0.6908,0.6913,0.6919,0.6914,0.6921,0.6932,0.6938,0.6949,0.6959,0.6967,0.6969,0.6963,0.6962,0.6966,0.6968,0.6968,0.6968,0.692,0.6961,0.6961,0.6961,0.6961,0.6961,0.6912,0.6921,0.6924,0.6934,0.6937,0.6941,0.695,0.6949,0.6958,0.6967,0.6963,0.6975,0.6978,0.6988,0.6991,0.7,0.6995,0.7,0.7001,0.7003,0.7004,0.6966,0.7002,0.7002,0.7002,0.7002,0.7001,0,0.6952,0.6953,0.6961,0.6968,0.6975,0.6967,0.6972,0.6979,0.6989,0.6993,0.7,0.7011,0.702,0.702,0.7029,0.7036,0.7033,0.7038,0.7038,0.7038,0.7009,0.7005,0.704,0.704,0.704,0.704,0.704,0.704,0.6974,0.6989,0.6987,0.7004,0.7004,0.7015,0.7019,0.7023,0.7025,0.7038,0.7045,0.7045,0.7047,0.7055,0.7063,0.7063,0.7066,0.7073,0.7072,0.7044,0.7041,0.7037,0.7033,0.7073,0.7073,0.71,0.71,0.71]}]]